Regional Weather Roundup
Issued by NWS

Home | Current Version | Previous Version | Graphics & Text | Print | Product List | Glossary On
Versions: 1 2 3 4 5 6 7 8 9 10 11 12 13 14 15 16 17 18 19 20 21 22 23 24 25 26 27 28 29 30 31 32 33 34 35 36 37 38 39 40 41 42 43 44 45 46 47 48 49 50
075
ASUS45 KBOU 101807
RWRCO

WEATHER ROUNDUP FOR COLORADO
NATIONAL WEATHER SERVICE DENVER/BOULDER CO
1100 AM MST SAT DEC 10 2016

NOTE: "FAIR" INDICATES FEW OR NO CLOUDS BELOW 12000 FEET WITH NO
SIGNIFICANT WEATHER AND/OR OBSTRUCTIONS TO VISIBILITY.

COZ001>005-013-030-031-101900-
...NORTHWEST COLORADO...

CITY           SKY/WX    TMP DP  RH WIND       PRES   REMARKS
CRAIG          LGT RAIN  45  26  47 W10       29.95F
HAYDEN         CLOUDY    34  23  64 SE3       29.96F
MEEKER         PTSUNNY   43  29  57 SW24G33   30.00S
MOUNT WERNER   NOT AVBL
STEAMBOAT SPGS CLOUDY    26  24  91 CALM      29.96F
WALDEN           N/A     36  23  60 SW23G37   29.95F
$$

COZ006>008-011-101900-
...WEST CENTRAL VALLEYS...

CITY           SKY/WX    TMP DP  RH WIND       PRES   REMARKS
GRAND JUNCTION FAIR      33  24  69 W3        30.10F
MONTROSE       FAIR      38  27  64 SE3       30.10F
EAGLE          CLOUDY    34  25  69 E6        30.02F WCI  29
RIFLE          CLOUDY    28  23  81 N3        30.10F
DELTA          NOT AVBL
NUCLA          FAIR      37  27  65 CALM      30.16F
$$

COZ017>023-064>068-101900-
...SOUTHWEST COLORADO...

CITY           SKY/WX    TMP DP  RH WIND       PRES   REMARKS
DURANGO        FAIR      42  23  46 E7        30.20F
CORTEZ         FAIR      45  30  55 VRB3      30.16F
PAGOSA SPRINGS FAIR      38  21  49 CALM      30.22F
TELLURIDE      PTSUNNY   44  13  27 CALM      30.18F
WOLF CREEK PAS FAIR      27  19  74 SW20G32   30.28F WCI  13
$$

COZ009-010-012-014-032>034-037-058>063-101900-
...CENTRAL COLORADO...

CITY           SKY/WX    TMP DP  RH WIND       PRES   REMARKS
ASPEN          CLOUDY    38  26  62 CALM      29.99F
BUENA VISTA    FAIR      47  13  25 SW6       30.00F
COPPER MTN     NOT AVBL
BERTHOUD PASS  LGT SNOW  23  10  58 W36G58    30.02F WCI   4
COTTONWOOD PAS FAIR      43  10  26 SW23G38   30.03F
GUNNISON       FAIR      17  14  88 W3        30.17F
KREMMLING      CLOUDY    45  25  45 W13G18    29.97F
LEADVILLE      CLOUDY    40  10  29 W20G26    30.03F
MONARCH PASS   FAIR      25  18  74 SW38G45   30.23F WCI   6
SALIDA         FAIR      46  18  32 SW17G31   30.08F
SUNLIGHT       CLOUDY    27  21  80 SW20G37   30.11S WCI  13
WILKERSON PASS FAIR      34  14  44 S10G21    30.10F WCI  26
$$

COZ069>075-101900-
...SAN LUIS VALLEY/SANGRE DE CRISTO MOUNTAINS...

CITY           SKY/WX    TMP DP  RH WIND       PRES   REMARKS
ALAMOSA        FAIR      37  22  54 N6        30.13F
LA VETA PASS   FAIR      39  21  48 NE20G38   30.08S
SAGUACHE       FAIR      34  21  60 S5        30.15F WCI  30
$$

COZ035-036-038>040-101900-
...NORTHERN COLORADO FRONT RANGE...

CITY           SKY/WX    TMP DP  RH WIND       PRES   REMARKS
DENVER INTL AP PTSUNNY   40  29  64 CALM      29.81F
DMNS CITY PARK   N/A     37  25  61 E6G15     29.80F
AURORA         PTSUNNY   43  30  59 CALM      29.82F
FRONT RANGE AP NOT AVBL
ERIE MUNI ARPT FAIR      30  23  75 NE5       29.82F WCI  25
BOULDER MUN AP FAIR      28  23  80 E6        29.80F WCI  22
CENTENNIAL     PTSUNNY   55  17  22 S6        29.82F
BROOMFIELD     PTSUNNY   39  25  56 VRB6      29.82F
FORT COLLINS   FAIR      25  21  86 N6        29.83F WCI  18
LONGMONT       NOT AVBL
$$

COZ041-046-047-076>085-087-088-101900-
...PIKES PEAK/PALMER DIVIDE AND SOUTHERN FOOTHILLS...

CITY           SKY/WX    TMP DP  RH WIND       PRES   REMARKS
COLO. SPRINGS  PTSUNNY   46  21  37 SE12      29.90F
A. F. ACADEMY  FAIR      39  20  47 S12       29.88F
SCHRIEVER AFB  NOT AVBL
ELLICOTT       FAIR     N/A N/A N/A SW8       29.89F
FALCON         FAIR      45  19  35 SE12      29.91F
FORT CARSON    FAIR      44  21  39 NE8       29.87F
LIMON          FAIR      48  23  37 E5        29.86F
MONUMENT HILL  FAIR      54  16  22 W13G23    29.89F
TRINIDAD       FAIR      58  17  20 E7        29.94F
$$

COZ042>045-048>051-090-091-101900-
...NORTHEAST COLORADO...

CITY           SKY/WX    TMP DP  RH WIND       PRES   REMARKS
GREELEY ARPT   FAIR      27  20  75 CALM      29.85F
AKRON          FAIR      33  23  66 SW5       29.83F WCI  29
BURLINGTON     FAIR      45  27  49 S14       29.86F
WRAY           NOT AVBL
STERLING       FAIR      27  21  80 SW5       29.85F WCI  21
HOLYOKE        FAIR      28  23  80 SE8       29.88F WCI  20
FORT MORGAN    FAIR      28  20  73 W7        29.85F WCI  20
$$

COZ086-089-092>099-101900-
...SOUTHEAST COLORADO...

CITY           SKY/WX    TMP DP  RH WIND       PRES   REMARKS
PUEBLO         FAIR      39  21  48 SE3       29.89F
LA JUNTA       FAIR      39  18  42 S5        29.90F
LAMAR          FAIR      36  19  50 CALM      29.92F
SPRINGFIELD      N/A     56  26  31 S12       29.90F
$$




USA.gov is the U.S. government's official web portal to all federal, state and local government web resources and services.